{"data":{"norad_id":65507,"epoch":"2026-05-25T02:06:03.806784Z","epoch_age_seconds":70615,"freshness":"FRESH","line1":"1 65507U 25198R   26145.08754406  .00018751  00000+0  64356-3 0  9998","line2":"2 65507  53.1600 276.3716 0001338  79.2893 280.8259 15.30201941 40313","mean_motion":15.30201941,"eccentricity":0.0001338,"inclination_deg":53.16,"raan_deg":276.3716,"arg_perigee_deg":79.2893,"mean_anomaly_deg":280.8259,"bstar":0.00064356,"rev_number":4031,"period_min":94.105226337574,"perigee_km":474.29229621786,"apogee_km":476.12625168077,"semimajor_km":6853.3462739493,"source":"CELESTRAK","updated_at":"2026-05-25T13:38:20.842825Z"}}